�������l�o���
Date,Time,MP-1(��Sv/h),MP-2(��Sv/h),MP-3(��Sv/h),MP-4(��Sv/h),MP-5(��Sv/h),MP-6(��Sv/h),MP-7(��Sv/h),MP-8(��Sv/h),����,����(m/s),���J
2019/11/04,00:00,0.721,1.030,0.670,1.260,0.893,0.417,0.717,0.681,�k�k��,3.5,��
2019/11/04,00:10,0.721,1.030,0.670,1.261,0.893,0.416,0.717,0.679,�k�k��,3.9,��
2019/11/04,00:20,0.723,1.029,0.670,1.261,0.893,0.415,0.717,0.681,�k�k��,3.6,��
2019/11/04,00:30,0.721,1.030,0.672,1.260,0.890,0.417,0.716,0.682,�k�k��,3.3,��
2019/11/04,00:40,0.721,1.031,0.670,1.258,0.894,0.415,0.717,0.680,�k�k��,3.8,��
2019/11/04,00:50,0.721,1.031,0.671,1.260,0.893,0.415,0.718,0.682,�k�k��,5.0,��
2019/11/04,01:00,0.722,1.030,0.672,1.261,0.893,0.417,0.719,0.680,�k�k��,6.0,��
2019/11/04,01:10,0.722,1.030,0.671,1.261,0.893,0.414,0.717,0.680,�k�k��,7.1,��
2019/11/04,01:20,0.722,1.031,0.669,1.258,0.894,0.414,0.716,0.681,�k�k��,6.7,��
2019/11/04,01:30,0.722,1.031,0.670,1.261,0.891,0.416,0.718,0.681,�k�k��,6.1,��
2019/11/04,01:40,0.722,1.031,0.670,1.261,0.892,0.414,0.717,0.680,�k��,5.6,��
2019/11/04,01:50,0.722,1.029,0.672,1.259,0.893,0.416,0.719,0.680,�k��,6.9,��
2019/11/04,02:00,0.722,1.031,0.669,1.264,0.894,0.415,0.718,0.682,�k�k��,6.4,��
2019/11/04,02:10,0.723,1.032,0.670,1.259,0.891,0.416,0.716,0.682,�k�k��,7.1,��
2019/11/04,02:20,0.723,1.028,0.669,1.263,0.894,0.415,0.717,0.682,�k�k��,6.9,��
2019/11/04,02:30,0.722,1.029,0.670,1.261,0.891,0.416,0.717,0.682,�k�k��,5.8,��
2019/11/04,02:40,0.722,1.027,0.670,1.259,0.891,0.415,0.716,0.680,�k�k��,7.1,��
2019/11/04,02:50,0.722,1.029,0.669,1.259,0.891,0.414,0.715,0.680,�k�k��,6.9,��
2019/11/04,03:00,0.723,1.031,0.670,1.262,0.892,0.417,0.715,0.680,�k��,5.7,��
2019/11/04,03:10,0.722,1.032,0.669,1.258,0.892,0.414,0.716,0.679,�k�k��,6.6,��
2019/11/04,03:20,0.721,1.030,0.669,1.263,0.892,0.413,0.716,0.681,�k�k��,5.5,��
2019/11/04,03:30,0.721,1.029,0.670,1.261,0.891,0.414,0.716,0.681,�k�k��,6.3,��
2019/11/04,03:40,0.721,1.030,0.669,1.263,0.892,0.415,0.717,0.680,�k�k��,6.6,��
2019/11/04,03:50,0.722,1.027,0.670,1.259,0.891,0.414,0.716,0.681,�k�k��,6.9,��
2019/11/04,04:00,0.722,1.029,0.670,1.261,0.891,0.415,0.718,0.680,�k�k��,7.4,��
2019/11/04,04:10,0.721,1.030,0.669,1.263,0.893,0.415,0.717,0.679,�k�k��,6.4,��
2019/11/04,04:20,0.721,1.028,0.669,1.261,0.891,0.415,0.717,0.678,�k�k��,5.0,��
2019/11/04,04:30,0.721,1.030,0.670,1.259,0.891,0.415,0.717,0.681,�k�k��,6.0,��
2019/11/04,04:40,0.720,1.029,0.668,1.263,0.891,0.414,0.716,0.681,�k�k��,5.8,��
2019/11/04,04:50,0.719,1.030,0.669,1.259,0.893,0.416,0.718,0.680,�k�k��,5.5,��
2019/11/04,05:00,0.722,1.028,0.669,1.261,0.892,0.414,0.715,0.680,�k�k��,6.3,��
2019/11/04,05:10,0.719,1.031,0.668,1.260,0.893,0.413,0.716,0.680,�k�k��,5.6,��
2019/11/04,05:20,0.721,1.028,0.669,1.259,0.890,0.414,0.718,0.681,�k�k��,6.3,��
2019/11/04,05:30,0.720,1.030,0.670,1.260,0.892,0.414,0.717,0.680,�k�k��,5.7,��
2019/11/04,05:40,0.721,1.029,0.669,1.264,0.891,0.414,0.716,0.679,�k�k��,5.8,��
2019/11/04,05:50,0.720,1.029,0.669,1.260,0.893,0.415,0.718,0.681,�k�k��,5.2,��
2019/11/04,06:00,0.720,1.030,0.670,1.259,0.893,0.414,0.715,0.681,�k�k��,4.9,��
2019/11/04,06:10,0.722,1.030,0.671,1.260,0.893,0.414,0.715,0.680,�k�k��,4.7,��
2019/11/04,06:20,0.720,1.029,0.668,1.260,0.892,0.413,0.716,0.682,�k�k��,5.5,��
2019/11/04,06:30,0.722,1.028,0.669,1.261,0.890,0.414,0.715,0.681,�k�k��,5.0,��
2019/11/04,06:40,0.720,1.029,0.670,1.259,0.892,0.414,0.715,0.680,�k�k��,3.8,��
2019/11/04,06:50,0.720,1.029,0.668,1.262,0.891,0.413,0.717,0.679,�k�k��,4.5,��
2019/11/04,07:00,0.721,1.029,0.668,1.261,0.890,0.415,0.716,0.682,�k�k��,4.9,��
2019/11/04,07:10,0.720,1.031,0.668,1.261,0.890,0.413,0.716,0.680,�k�k��,3.6,��
2019/11/04,07:20,0.719,1.029,0.669,1.257,0.891,0.414,0.716,0.680,�k�k��,5.2,��
2019/11/04,07:30,0.719,1.028,0.668,1.261,0.891,0.412,0.715,0.680,�k�k��,5.3,��
2019/11/04,07:40,0.721,1.029,0.668,1.263,0.894,0.414,0.716,0.679,�k�k��,5.0,��
2019/11/04,07:50,0.719,1.028,0.668,1.260,0.892,0.413,0.715,0.682,�k�k��,4.6,��
2019/11/04,08:00,0.722,1.028,0.668,1.262,0.892,0.413,0.717,0.681,�k�k��,5.8,��
2019/11/04,08:10,0.722,1.030,0.670,1.262,0.892,0.414,0.718,0.681,�k,5.7,��
2019/11/04,08:20,0.720,1.027,0.669,1.260,0.893,0.413,0.717,0.678,�k�k��,5.2,��
2019/11/04,08:30,0.723,1.026,0.669,1.260,0.892,0.413,0.717,0.680,�k�k��,5.5,��
2019/11/04,08:40,0.722,1.023,0.668,1.260,0.892,0.413,0.717,0.681,�k�k��,4.4,��
2019/11/04,08:50,0.719,1.023,0.668,1.262,0.893,0.413,0.716,0.680,�k�k��,4.1,��
2019/11/04,09:00,0.721,1.023,0.666,1.261,0.893,0.413,0.718,0.683,�k,4.1,��
2019/11/04,09:10,0.719,1.023,0.670,1.262,0.891,0.414,0.717,0.680,�k�k��,3.1,��
2019/11/04,09:20,0.720,1.023,0.668,1.264,0.894,0.414,0.718,0.680,�k,3.4,��
2019/11/04,09:30,0.721,1.024,0.670,1.263,0.894,0.414,0.718,0.682,�k,5.2,��
2019/11/04,09:40,0.723,1.024,0.668,1.264,0.892,0.413,0.717,0.683,�k,4.9,��
2019/11/04,09:50,0.722,1.024,0.670,1.263,0.891,0.414,0.717,0.680,�k�k��,8.0,��
2019/11/04,10:00,0.721,1.023,0.670,1.262,0.891,0.411,0.718,0.682,�k,8.9,��
2019/11/04,10:10,0.721,1.023,0.670,1.264,0.892,0.412,0.717,0.681,�k,8.3,��
2019/11/04,10:20,0.722,1.024,0.672,1.262,0.894,0.412,0.716,0.682,�k,8.3,��
2019/11/04,10:30,0.721,1.024,0.671,1.263,0.894,0.411,0.716,0.681,�k,8.8,��
2019/11/04,10:40,0.720,1.027,0.669,1.263,0.892,0.412,0.717,0.680,�k,7.8,��
2019/11/04,10:50,0.721,1.025,0.669,1.263,0.892,0.413,0.715,0.679,�k,6.9,��
2019/11/04,11:00,0.721,1.024,0.669,1.264,0.893,0.412,0.718,0.679,�k,7.1,��
2019/11/04,11:10,0.721,1.024,0.667,1.261,0.893,0.413,0.718,0.682,�k,7.2,��
2019/11/04,11:20,0.721,1.024,0.668,1.264,0.892,0.411,0.716,0.680,�k,8.3,��
2019/11/04,11:30,0.720,1.023,0.667,1.262,0.892,0.412,0.717,0.681,�k�k��,9.1,��
2019/11/04,11:40,0.719,1.028,0.668,1.263,0.892,0.412,0.717,0.683,�k,9.7,��
2019/11/04,11:50,0.720,1.026,0.669,1.264,0.892,0.413,0.716,0.681,�k,8.8,��
2019/11/04,12:00,0.720,1.029,0.668,1.263,0.895,0.412,0.717,0.681,�k,8.2,��
2019/11/04,12:10,0.720,1.028,0.669,1.265,0.892,0.412,0.715,0.682,�k�k��,9.4,��
2019/11/04,12:20,0.721,1.030,0.668,1.263,0.894,0.413,0.717,0.680,�k,8.5,��
2019/11/04,12:30,0.718,1.028,0.669,1.264,0.893,0.414,0.719,0.681,�k�k��,7.8,��
2019/11/04,12:40,0.718,1.031,0.668,1.267,0.891,0.415,0.715,0.680,�k�k��,8.5,��
2019/11/04,12:50,0.722,1.029,0.669,1.265,0.893,0.415,0.717,0.678,�k�k��,8.5,��
2019/11/04,13:00,0.722,1.030,0.671,1.263,0.893,0.412,0.716,0.679,�k�k��,7.4,��
2019/11/04,13:10,0.723,1.029,0.670,1.264,0.894,0.414,0.718,0.680,�k�k��,7.1,��
2019/11/04,13:20,0.724,1.028,0.670,1.267,0.894,0.415,0.717,0.679,�k�k��,7.1,��
2019/11/04,13:30,0.722,1.027,0.670,1.265,0.895,0.415,0.716,0.678,�k,7.1,��
2019/11/04,13:40,0.723,1.028,0.668,1.267,0.896,0.413,0.717,0.678,�k�k��,7.1,��
2019/11/04,13:50,0.721,1.027,0.669,1.267,0.896,0.413,0.717,0.680,�k�k��,6.6,��
2019/11/04,14:00,0.724,1.025,0.668,1.264,0.896,0.413,0.718,0.679,�k�k��,6.0,��
2019/11/04,14:10,0.722,1.027,0.670,1.264,0.895,0.414,0.716,0.679,�k�k��,6.1,��
2019/11/04,14:20,0.723,1.028,0.668,1.266,0.896,0.414,0.717,0.679,�k�k��,6.6,��
2019/11/04,14:30,0.722,1.026,0.668,1.266,0.894,0.413,0.717,0.679,�k�k��,6.3,��
2019/11/04,14:40,0.723,1.027,0.669,1.267,0.897,0.415,0.715,0.680,�k,5.5,��
2019/11/04,14:50,0.723,1.030,0.668,1.264,0.895,0.413,0.717,0.681,�k,5.6,��
2019/11/04,15:00,0.721,1.029,0.668,1.265,0.894,0.414,0.717,0.680,�k,4.4,��
2019/11/04,15:10,0.720,1.029,0.668,1.266,0.895,0.413,0.718,0.679,�k,4.9,��
2019/11/04,15:20,0.721,1.031,0.668,1.267,0.896,0.417,0.717,0.680,�k,4.9,��
2019/11/04,15:30,0.722,1.033,0.668,1.267,0.893,0.415,0.718,0.681,�k,4.1,��
2019/11/04,15:40,0.722,1.033,0.672,1.266,0.894,0.415,0.718,0.681,�k,3.9,��
2019/11/04,15:50,0.723,1.033,0.673,1.265,0.897,0.415,0.717,0.684,�k,2.1,��
2019/11/04,16:00,0.725,1.035,0.672,1.267,0.896,0.414,0.718,0.682,�k�k��,3.6,��
2019/11/04,16:10,0.725,1.035,0.672,1.268,0.895,0.413,0.719,0.681,�k�k��,2.6,��
2019/11/04,16:20,0.724,1.037,0.671,1.265,0.896,0.414,0.717,0.682,�k�k��,3.2,��
2019/11/04,16:30,0.724,1.036,0.672,1.267,0.897,0.415,0.717,0.681,�k�k��,2.7,��
2019/11/04,16:40,0.724,1.037,0.672,1.265,0.897,0.414,0.717,0.682,�k��,4.0,��
2019/11/04,16:50,0.722,1.036,0.671,1.265,0.896,0.415,0.716,0.683,�k��,4.5,��
2019/11/04,17:00,0.724,1.035,0.671,1.265,0.898,0.414,0.717,0.681,�k��,5.2,��
2019/11/04,17:10,0.724,1.035,0.670,1.266,0.897,0.414,0.718,0.680,�k��,6.3,��
2019/11/04,17:20,0.723,1.035,0.671,1.266,0.897,0.414,0.717,0.681,�k��,5.5,��
2019/11/04,17:30,0.723,1.037,0.670,1.265,0.898,0.414,0.718,0.679,�k��,5.2,��
2019/11/04,17:40,0.722,1.035,0.671,1.263,0.895,0.414,0.718,0.680,���k��,4.3,��
2019/11/04,17:50,0.724,1.036,0.671,1.268,0.898,0.415,0.718,0.681,���k��,4.9,��
2019/11/04,18:00,0.721,1.035,0.671,1.266,0.896,0.413,0.720,0.681,�k��,4.6,��
2019/11/04,18:10,0.719,1.036,0.671,1.267,0.895,0.413,0.717,0.679,���k��,5.2,��
2019/11/04,18:20,0.722,1.033,0.671,1.267,0.899,0.415,0.717,0.681,�k��,6.7,��
2019/11/04,18:30,0.723,1.033,0.671,1.266,0.893,0.414,0.718,0.680,�k��,6.1,��
2019/11/04,18:40,0.722,1.037,0.672,1.267,0.897,0.414,0.718,0.681,�k��,4.4,��
2019/11/04,18:50,0.722,1.034,0.672,1.265,0.896,0.413,0.719,0.681,���k��,4.5,��
2019/11/04,19:00,0.722,1.033,0.672,1.268,0.897,0.414,0.720,0.680,�k��,3.8,��
2019/11/04,19:10,0.721,1.032,0.671,1.265,0.895,0.413,0.718,0.680,�k��,3.9,��
2019/11/04,19:20,0.724,1.036,0.672,1.269,0.895,0.414,0.718,0.682,�k��,4.9,��
2019/11/04,19:30,0.724,1.037,0.672,1.268,0.895,0.413,0.719,0.680,�k��,4.5,��
2019/11/04,19:40,0.723,1.037,0.672,1.266,0.896,0.414,0.718,0.681,�k��,5.2,��
2019/11/04,19:50,0.724,1.033,0.672,1.266,0.897,0.414,0.717,0.681,�k��,5.7,��
2019/11/04,20:00,0.721,1.034,0.672,1.267,0.897,0.412,0.718,0.680,���k��,4.9,��
2019/11/04,20:10,0.724,1.034,0.671,1.266,0.894,0.414,0.718,0.681,���k��,4.7,��
2019/11/04,20:20,0.722,1.034,0.672,1.266,0.896,0.413,0.718,0.680,���k��,3.8,��
2019/11/04,20:30,0.722,1.035,0.671,1.266,0.897,0.412,0.719,0.680,���k��,4.2,��
2019/11/04,20:40,0.722,1.037,0.672,1.266,0.896,0.414,0.717,0.682,�k��,3.8,��
2019/11/04,20:50,0.722,1.034,0.671,1.267,0.895,0.414,0.717,0.679,�k��,3.9,��
2019/11/04,21:00,0.723,1.036,0.670,1.265,0.895,0.414,0.718,0.681,�k��,3.1,��
2019/11/04,21:10,0.721,1.034,0.670,1.267,0.897,0.414,0.717,0.680,���k��,3.5,��
2019/11/04,21:20,0.722,1.034,0.672,1.265,0.896,0.414,0.718,0.681,���k��,3.5,��
2019/11/04,21:30,0.721,1.034,0.670,1.266,0.895,0.413,0.720,0.680,�k��,4.3,��
2019/11/04,21:40,0.722,1.035,0.671,1.264,0.895,0.413,0.717,0.679,�k��,4.3,��
2019/11/04,21:50,0.721,1.035,0.669,1.268,0.896,0.414,0.718,0.679,���k��,4.4,��
2019/11/04,22:00,0.722,1.033,0.669,1.267,0.894,0.412,0.719,0.681,��,3.9,��
2019/11/04,22:10,0.723,1.034,0.671,1.265,0.895,0.414,0.719,0.681,��,3.6,��
2019/11/04,22:20,0.720,1.036,0.672,1.264,0.895,0.413,0.718,0.681,���쐼,2.9,��
2019/11/04,22:30,0.722,1.034,0.670,1.266,0.895,0.416,0.717,0.681,��,3.8,��
2019/11/04,22:40,0.719,1.034,0.670,1.265,0.895,0.415,0.718,0.682,���쐼,3.6,��
2019/11/04,22:50,0.719,1.033,0.670,1.267,0.897,0.413,0.719,0.679,��,4.3,��
2019/11/04,23:00,0.720,1.033,0.670,1.267,0.896,0.414,0.718,0.681,��,3.6,��
2019/11/04,23:10,0.720,1.034,0.671,1.268,0.895,0.413,0.717,0.681,��,4.5,��
2019/11/04,23:20,0.722,1.036,0.672,1.266,0.896,0.413,0.718,0.679,��,4.2,��
2019/11/04,23:30,0.723,1.035,0.670,1.266,0.896,0.414,0.717,0.682,��,4.1,��
2019/11/04,23:40,0.720,1.035,0.671,1.268,0.896,0.413,0.719,0.681,��,4.3,��
2019/11/04,23:50,0.722,1.034,0.670,1.266,0.895,0.414,0.718,0.681,���쐼,3.8,��
